Home > Weather > France > Metz > Past weeks

Flag for France Weather past 2 weeks in Metz, France

52 °F

Mostly cloudy.

Feels Like: 46 °F
Forecast: 37 / 50 °F
Wind: 17 mph from Southwest

Location: Metz-Nancy-Lorraine

Current Time: Dec 1, 2015 at 3:47:45 PM

Latest Report: Dec 1, 2015 at 3:00 PM

Visibility: N/A

Pressure: 30.39 "Hg

Humidity: 82%

Dew point: 46 °F

Location of MetzLocation

Historic Weather in Metz — Graph


Metz temperature yesterday

Maximum temperature yesterday: 52 °F (at 12:00 AM)
Minimum temperature yesterday: 48 °F (at 10:30 AM)
Average temperature yesterday: 51 °F

Past Weeks' High & Low Weather Summary

High59 °F (Nov 17, 11:30 PM)100% (Nov 17, 10:30 AM)30.39 "Hg (Nov 17, 10:30 AM)
Low27 °F (Nov 27, 5:00 AM)66% (Nov 28, 2:00 PM)29.45 "Hg (Nov 21, 7:30 AM)
Average43 °F88%30.00 "Hg
* Reported Nov 16 2:00 PM — Dec 1 2:30 PM, Metz, Weather by CustomWeather, © 2015

Note: Actual official high and low records may vary slightly from our data, if they occured in-between our weather recording intervals... More about our weather records


Metz weather history for previous 24 hours

Time TempWeatherWind HumidityBarometerVisibility
2:30 PM
Tue, Dec 1
50 °FCloudy.20 mph88%30.39 "HgN/A
2:00 PM50 °FOvercast.21 mph88%30.39 "HgN/A
1:30 PM50 °FOvercast.18 mph88%30.39 "HgN/A
1:00 PM50 °FOvercast.20 mph88%30.39 "HgN/A
12:30 PM50 °FLow clouds.18 mph88%30.39 "HgN/A
12:00 PM50 °FLow clouds.21 mph88%30.36 "HgN/A
11:30 AM50 °FLow clouds.18 mph88%30.36 "HgN/A
11:00 AM50 °FOvercast.20 mph88%30.36 "HgN/A
10:30 AM48 °FLow clouds.21 mph94%30.36 "HgN/A
10:00 AM48 °FLow clouds.18 mph94%30.36 "HgN/A
9:00 AM48 °FMostly cloudy.20 mph94%30.33 "HgN/A
8:30 AM48 °FLow clouds.18 mph94%30.33 "HgN/A
8:00 AM48 °FDrizzle. Mostly cloudy.23 mph94%30.30 "HgN/A
7:30 AM48 °FDrizzle. Mostly cloudy.24 mph94%30.30 "Hg4 mi
7:00 AM48 °FLight rain. Mostly cloudy.24 mph94%30.30 "Hg5 mi
6:30 AM48 °FLight rain. Overcast.22 mph94%30.30 "HgN/A
6:00 AM48 °FLight rain. Overcast.22 mph94%30.27 "HgN/A
5:30 AM48 °FLight rain. Mostly cloudy.22 mph94%30.27 "HgN/A
5:00 AM48 °FLight rain. Overcast.21 mph94%30.27 "HgN/A
4:30 AM48 °FLight rain. Overcast.24 mph94%30.27 "HgN/A
4:00 AM48 °FLight rain. Overcast.22 mph94%30.27 "HgN/A
3:30 AM48 °FLight rain. Overcast.22 mph94%30.27 "HgN/A
3:00 AM48 °FLight rain. Overcast.24 mph87%30.27 "HgN/A
2:30 AM48 °FLight rain. Overcast.21 mph87%30.27 "HgN/A
1:30 AM50 °FLight rain. Overcast.23 mph82%30.24 "HgN/A
1:00 AM52 °FOvercast.26 mph77%30.24 "HgN/A
12:30 AM50 °FOvercast.28 mph82%30.24 "HgN/A
12:00 AM50 °FOvercast.25 mph82%30.24 "HgN/A
11:30 PM
Mon, Nov 30
50 °FOvercast.28 mph82%30.24 "HgN/A
11:00 PM52 °FOvercast.29 mph77%30.21 "HgN/A
10:30 PM50 °FOvercast.26 mph82%30.21 "HgN/A
10:00 PM50 °FMostly cloudy.24 mph82%30.21 "HgN/A
9:30 PM50 °FMostly cloudy.26 mph82%30.21 "HgN/A
9:00 PM50 °FMostly cloudy.28 mph82%30.21 "HgN/A
8:30 PM50 °FMostly cloudy.25 mph82%30.21 "HgN/A
8:00 PM50 °FPartly cloudy.28 mph82%30.21 "HgN/A
7:30 PM50 °FMostly cloudy.25 mph82%30.21 "HgN/A
7:00 PM50 °FMostly cloudy.25 mph88%30.21 "HgN/A
6:30 PM50 °FMostly cloudy.18 mph82%30.21 "HgN/A
6:00 PM50 °FMostly cloudy.18 mph82%30.21 "HgN/A
5:30 PM50 °FMostly cloudy.23 mph82%30.21 "HgN/A
5:00 PM50 °FMostly cloudy.24 mph82%30.21 "HgN/A
4:30 PM50 °FMostly cloudy.20 mph88%30.21 "HgN/A
4:00 PM48 °FDrizzle. Mostly cloudy.17 mph94%30.21 "HgN/A
3:30 PM50 °FPartly sunny.21 mph88%30.21 "HgN/A
3:00 PM50 °FPartly sunny.21 mph82%30.21 "HgN/A
Weather by CustomWeather, © 2015

See weather overviewHow to use our weather pages